Coal Creek, Washington
Current Conditions -  °F | °C
As of 2:58 PM on Tuesday 27 Jan 2015 (Local Time) from KRNT Reporting Station
Haze Haze  
Wind Chill: 52°   Ceiling: 1100
Heat Index: 52°   Visibility: 2.5mi
Dew Point: 50°   Wind: 0mph
Humidity: 93%   Direction: NA
Pressure: 30.11"   Gusts: NA
Location:  47.4953°N, 121.984°W
Report Text: KRNT 272258Z 00000KT 2 1/2SM BR OVC011 11/10 A3011 RMK AO2 VIS 1 1/2V4 RAE54 P0000 T01110100
Loading
Personal Weather Stations






























Interactive Weather Map New forecast layout! Learn more

10-Day Weather Forecast

Advertisements
Track Severe Weather on mobile